Zurück zum Katalog

ICEYE-X50

AktivWissenschaftSSO
NORAD 63255·PAYLOAD·🇫🇮 Finland

Gestartet Mar 15, 2025 von Vandenberg Space Force Base

Loading…

Nächste Überflüge (nächste 24 Stunden)

TLE

AktuellSource: Space-Track

Epoche: Sep 14, 2026, 14:53 UTC

1 63255U 25052AX  26257.62061297  .00000949  00000-0  90776-4 0  9995
2 63255  97.6744 147.7464 0000431 298.9579  61.1599 14.95515146 82013

Verfolge ICEYE-X50 in Echtzeit mit AllMySat

Download on the App Store